Location: Caltech
(34.1382°N, 118.1253°W)
Time: 10:08:06
(UTC-07:00)

Courier 1B - Visible Passes

Search period start: 20 June 2018 00:00
Search period end: 30 June 2018 00:00
Orbit: 962 x 1209 km, 28.3° (Epoch: 19 June)

Date Brightness Start Highest point End Pass type
(mag) Time Alt. Az. Time Alt. Az. Time Alt. Az.
20 Jun 9.6 01:53:02 14° ESE 01:53:02 14° ESE 01:53:48 10° ESE visible
20 Jun 8.0 03:39:59 35° SW 03:40:57 37° SSW 03:46:53 10° SE visible
20 Jun 9.0 21:01:00 10° SSW 21:06:06 19° SSE 21:09:31 14° ESE visible
20 Jun 8.9 22:52:47 10° SW 22:56:31 27° SSW 22:56:31 27° SSW visible
21 Jun 8.7 02:50:24 27° SE 02:50:24 27° SE 02:53:32 10° ESE visible
21 Jun 8.7 04:37:23 15° WSW 04:40:41 21° SSW 04:45:22 10° SSE visible
21 Jun 8.3 21:59:10 10° SW 22:05:57 35° SSE 22:07:13 33° SE visible
21 Jun 9.5 23:52:35 10° WSW 23:54:12 17° WSW 23:54:12 17° WSW visible
22 Jun 8.5 03:48:05 26° S 03:48:05 26° S 03:52:31 10° SSE visible
22 Jun 8.6 21:05:43 10° SW 21:12:12 29° SSE 21:17:41 13° ESE visible
22 Jun 8.1 22:58:42 10° WSW 23:04:38 45° SSW 23:04:38 45° SSW visible
23 Jun 9.6 02:58:58 12° SE 02:58:58 12° SE 02:59:26 10° SE visible
23 Jun 9.1 04:45:59 12° SW 04:46:45 12° SSW 04:49:13 10° S visible
23 Jun 8.1 22:04:53 10° WSW 22:12:10 46° SSE 22:14:48 34° ESE visible
23 Jun 9.1 23:58:48 10° WSW 00:01:44 25° WSW 00:01:44 25° WSW visible
24 Jun 9.4 03:57:00 11° S 03:57:00 11° S 03:57:23 10° S visible
24 Jun 8.3 21:11:10 10° SW 21:18:20 40° SSE 21:24:45 12° E visible
24 Jun 7.9 23:04:50 10° WSW 23:11:39 54° SSW 23:11:39 54° SSW visible
25 Jun 7.9 22:10:54 10° WSW 22:18:25 54° S 22:21:24 35° ESE visible
26 Jun 9.1 00:05:07 10° W 00:08:17 26° WSW 00:08:17 26° WSW visible
26 Jun 8.1 21:17:03 10° WSW 21:24:34 50° S 21:30:59 14° E visible
26 Jun 8.0 23:11:06 10° W 23:17:53 53° SSW 23:17:53 53° SSW visible
27 Jun 8.3 20:23:17 10° SW 20:30:41 45° SSE 20:37:56 10° E visible
27 Jun 7.9 22:17:07 10° WSW 22:24:44 57° S 22:27:22 39° SE visible
28 Jun 9.3 00:11:34 10° W 00:14:14 22° WSW 00:14:14 22° WSW visible
28 Jun 8.0 21:23:11 10° WSW 21:30:49 56° S 21:36:46 17° ESE visible
28 Jun 8.2 23:17:28 10° W 23:23:39 45° SW 23:23:39 45° SW visible
29 Jun 8.2 20:29:18 10° WSW 20:36:55 54° S 20:44:25 10° E visible
29 Jun 8.0 22:23:26 10° W 22:31:01 53° S 22:32:59 43° SE visible
